Location: Kawakawa
(35.3830°S, 174.0670°E)
Time: 13:30:05
(UTC+13:00)

Daily predictions for brighter satellites

Satellite Brightness Start Highest point End
(mag) Time Altitude Azimuth Time Altitude Azimuth Time Altitude Azimuth
Cosmos 1655 Rocket 4.1 20:58:14 10° N 21:04:35 86° E 21:10:58 10° S
Cosmos 1271 Rocket 3.2 21:02:09 10° S 21:06:04 45° E 21:09:56 10° NNE
Cosmos 2360 Rocket 4.0 21:04:59 10° ENE 21:06:07 11° E 21:07:16 10° E
HJ-1C 3.7 21:02:47 10° SSE 21:06:09 48° E 21:09:26 10° N
H-2A R/B 4.4 20:43:21 10° W 21:07:11 37° NW 21:11:47 10° NNE
Cosmos 1980 Rocket 2.6 21:03:29 10° NNW 21:09:11 71° WSW 21:14:56 10° SSE
Cosmos 1666 Rocket 4.1 21:05:05 10° S 21:09:24 41° E 21:13:37 10° NNE
Meteor 1-27 4.4 21:03:56 10° N 21:09:44 88° ENE 21:15:41 10° S
Tiangong 2 1.4 21:06:36 10° WSW 21:09:46 60° NNW 21:12:54 10° NE
Cosmos 2228 Rocket 4.5 21:13:38 10° NE 21:16:52 20° E 21:20:08 10° SE
Lacrosse 5 2.5 21:12:23 10° SSW 21:17:19 44° SE 21:22:00 11° ENE
Cosmos 1805 Rocket 3.7 21:14:25 10° S 21:18:49 80° W 21:23:10 10° N
Cosmos 2322 Rocket 2.8 21:14:10 10° N 21:19:17 36° ENE 21:24:28 10° SE
DELTA 2 R/B(2) 4.2 21:16:25 10° WNW 21:19:44 56° SSW 21:21:26 10° ESE
MOS 1 4.3 21:14:52 10° SSE 21:20:40 81° ENE 21:26:24 10° NNW
Cosmos 1741 Rocket 4.2 21:15:47 10° NNW 21:21:06 81° WSW 21:26:31 10° SSE
ADEOS Rocket 4.1 21:18:55 10° ENE 21:23:11 23° ESE 21:27:24 10° SSE
Cosmos 1184 Rocket 4.5 21:25:14 10° NNW 21:28:24 38° WSW 21:31:37 10° S
Cosmos 1515 Rocket 4.3 21:25:03 10° NNE 21:29:08 35° E 21:33:16 10° SSE
CZ-2D R/B 3.7 21:25:38 10° S 21:29:36 70° WSW 21:33:29 10° NNW
USA 186 1.9 21:27:29 10° SSE 21:30:09 36° E 21:32:28 11° NNE
Cosmos 1939 Rocket 2.9 21:30:57 10° SSE 21:35:12 84° E 21:39:23 10° N
Envisat 4.4 21:30:35 10° S 21:35:27 44° WSW 21:40:16 10° NW
USA 32 4.2 21:31:52 10° N 21:37:07 79° W 21:42:26 10° S
NOAA 11 4.3 21:33:17 10° SSE 21:38:47 59° E 21:44:13 10° N
Meteor 2-10 Rocket 4.1 21:33:56 10° NNW 21:38:57 61° W 21:44:12 10° S
ARGOS 4.5 21:36:22 10° SE 21:40:12 19° E 21:42:01 17° ENE
Cosmos 2227 4.3 21:35:54 10° SSW 21:41:34 62° ESE 21:46:04 16° NE
Resurs 01 Rocket 2.7 21:40:10 10° SE 21:43:52 25° E 21:45:44 19° NE
Cosmos 292 Rocket 3.9 21:39:37 10° SSW 21:44:27 78° WNW 21:49:07 11° N
Cosmos 2263 Rocket 2.9 21:40:25 10° S 21:45:40 37° ESE 21:49:11 19° ENE
Aureole 3 Rocket 2.9 21:45:49 10° S 21:49:28 75° E 21:53:47 12° N
CZ-2C R/B 3.1 21:48:35 18° NE 21:52:20 45° ESE 21:57:28 10° S
Cosmos 1151 Rocket 2.9 21:49:44 10° N 21:54:02 86° E 21:58:24 10° S
Resurs 1-3 4.0 21:52:48 10° SSE 21:57:03 42° E 21:59:43 20° NNE
Cosmos 2208 Rocket 3.9 22:00:21 10° SSW 22:05:38 84° ESE 22:09:01 23° NNE
SPOT 3 Rocket 4.4 22:01:33 10° S 22:06:37 52° WSW 22:11:38 10° NNW
Cosmos 2315 Rocket 4.0 22:00:39 10° S 22:07:04 83° E 22:12:15 16° N
H-2A R/B 2.9 22:07:45 10° NW 22:10:55 35° NNE 22:22:39 10° E
Cosmos 1633 Rocket 4.5 22:12:55 10° SSW 22:17:00 36° W 22:21:01 10° NNW
Cosmos 540 Rocket 4.4 22:12:54 10° S 22:17:38 34° ESE 22:19:09 28° E
ATLAS 3B R/B 4.0 22:18:33 20° E 22:18:33 20° E 22:22:45 10° ESE
USA 238 DEB 4.1 22:14:53 10° N 22:21:46 44° ENE 22:28:35 10° SE
USA 238 4.1 22:15:00 10° N 22:21:51 43° ENE 22:28:40 10° SE
BREEZE-M DEB (TANK) 4.3 22:23:25 10° W 22:27:18 25° SSW 22:29:24 10° SSE
Cosmos 2237 4.4 22:25:19 29° NNE 22:27:55 49° ENE 22:33:26 10° SSE
Cosmos 1862 3.3 22:25:51 10° S 22:29:55 80° W 22:31:06 44° N
Atlas Centaur 2 3.1 22:23:36 10° WNW 22:31:57 62° N 22:36:40 28° ENE
Cosmos 1763 Rocket 3.6 22:26:51 10° SSW 22:32:05 70° WNW 22:34:29 32° N
Cosmos 1869 Rocket 4.1 22:32:20 10° S 22:36:30 40° E 22:36:30 40° E
Cosmos 1486 Rocket 4.0 22:36:54 17° NNW 22:41:02 85° WSW 22:46:21 10° SSE
SL-08 R/B 4.4 22:39:25 27° N 22:42:56 84° E 22:49:10 10° S
SL-16 R/B 3.7 22:38:44 10° NW 22:43:56 36° WSW 22:49:12 10° S
H-2A R/B 1.8 22:39:05 10° SSE 22:44:09 76° ENE 22:45:39 46° N
Mayak 0.7 22:46:27 18° SE 22:46:27 18° SE 22:48:44 10° SSE
Cosmos 2360 Rocket 2.2 22:43:51 11° NNW 22:49:16 82° WSW 22:55:01 10° SSE
Cosmos 1707 Rocket 3.8 22:55:32 56° ESE 22:55:32 56° ESE 22:59:21 10° SSE
Meteor 1-26 Rocket 4.2 22:56:00 53° NNE 22:57:14 68° E 23:02:58 10° SSE
Cosmos 1933 3.9 22:58:17 48° WNW 22:59:01 56° W 23:03:07 10° S
Lacrosse 5 3.3 22:55:50 10° WSW 23:00:03 26° WNW 23:01:12 24° NW
Helios 1B rocket 2.8 23:00:45 55° SE 23:00:45 55° SE 23:04:22 10° S
Cosmos 1242 Rocket 3.6 22:57:11 10° SSW 23:00:44 40° W 23:00:53 40° W
COSMOS 2428 3.3 23:03:03 39° E 23:03:03 39° E 23:07:30 10° SE
Cosmos 1844 Rocket 3.6 22:56:59 10° S 23:02:06 33° ESE 23:02:38 33° ESE
Cosmos 841 Rocket 3.9 22:57:42 10° SSW 23:02:56 57° WNW 23:04:13 45° NNW
Cosmos 2322 Rocket 4.2 22:58:33 10° WNW 23:03:20 28° WSW 23:08:13 10° S
NOSS 3-2 (C) 4.3 23:03:17 43° NE 23:04:10 45° ENE 23:11:33 10° SE
Cosmos 1745 Rocket 4.0 23:05:15 37° NNW 23:07:59 80° W 23:14:24 10° S
Cosmos 968 Rocket 3.6 23:08:48 59° ESE 23:08:48 59° ESE 23:13:28 10° SSE
ADEOS Rocket 3.8 23:05:50 25° NNW 23:08:28 40° W 23:13:40 10° SSW
Cosmos 1386 Rocket 4.4 23:09:16 49° N 23:11:05 89° WSW 23:17:15 10° S
Cosmos 1709 Rocket 4.0 23:15:10 57° ENE 23:15:31 58° E 23:21:41 10° SSE
Terra 4.0 23:15:48 10° SE 23:16:50 14° SE 23:16:50 14° SE
Cosmos 1633 4.2 23:16:34 10° SSW 23:19:15 32° WSW 23:19:15 32° WSW
Resurs 01 Rocket 3.7 23:16:35 10° SSW 23:20:13 25° WSW 23:23:17 13° WNW
Cosmos 2322 3.9 23:18:11 37° NW 23:20:28 69° WSW 23:26:11 10° SSE
ARGOS 4.1 23:15:28 10° S 23:20:36 45° WSW 23:23:32 24° NW
Spot 2 Rocket 4.4 23:18:16 10° S 23:23:11 47° WSW 23:25:12 31° NW
Cosmos 1606 3.9 23:25:39 42° SSW 23:25:39 42° SSW 23:28:27 10° S
MetOp-B 4.2 23:19:54 10° S 23:25:20 76° WSW 23:25:59 66° NW
Meteor 1-25 Rocket 4.1 23:19:45 10° S 23:25:41 81° E 23:25:57 79° ENE
CENTAUR R/B 3.9 23:28:52 31° E 23:28:52 31° E 23:33:22 10° SE
Cosmos 2263 Rocket 3.7 23:24:44 10° SW 23:29:21 26° WNW 23:30:54 23° NW
Timation 1 Rocket 4.3 23:25:21 10° SSW 23:31:24 75° WNW 23:31:47 72° NW
Cosmos 2333 Rocket 2.6 23:35:00 52° ESE 23:35:00 52° ESE 23:39:33 10° SSE
Cosmos 2219 Rocket 2.5 23:36:23 58° SE 23:36:23 58° SE 23:41:04 10° SSE
Cosmos 2278 Rocket 4.0 23:34:21 10° SSE 23:38:21 19° SE 23:38:32 19° ESE
IRAS Rocket 4.4 23:33:37 10° S 23:39:13 69° WSW 23:39:48 63° WNW
Cosmos 2181 Rocket 4.3 23:34:02 10° S 23:39:48 53° ESE 23:39:48 53° ESE
SeaSat 1 3.0 23:40:11 10° SSE 23:44:00 53° SSE 23:44:00 53° SSE
Cosmos 2237 Rocket 3.8 23:51:01 23° SE 23:51:01 23° SE 23:53:28 10° SE
